Snowfall_Accumulation
0.0 0.0 0.0 0.0 0.0 0.0 0.0 0.0 0.0 0.0 0.0 0.0 0.0 0.0 0.0 0.0 0.0 0.0 0.0 0.0 0.0 0.0 0.0 0.0 0.0 0.0 0.0 0.0 0.0 0.0 0.0 0.0 0.0 0.0 0.0 0.0 0.0 0.0 0.0 0.0 0.0 0.0 0.0
0.0 0.0 0.0 0.0 0.0 0.0 0.0 0.0 0.0 0.0 0.0 0.0 0.0 0.0 0.0 0.0 0.0 0.0 0.0 0.0 0.0 0.0 0.0 0.0 0.0 0.0 0.0 0.0 0.0 0.0 0.0 0.0 0.0 0.0 0.0 0.0 0.0 0.0 0.0 0.0 0.0 0.0 0.0
0.0 0.0 0.0 0.0 0.0 0.0 0.0 0.0 0.0 0.0 0.0 0.0 0.0 0.0 0.0 0.0 0.0 0.0 0.0 0.0 0.0 0.0 0.0 0.0 0.0 0.0 0.0 0.0 0.0 0.0 0.0 0.0 0.0 0.0 0.0 0.0 0.0 0.0 0.0 0.0 0.0 0.0 0.0
0.0 0.0 0.0 0.0 0.0 0.0 0.0 0.0 0.0 0.0 0.0 0.0 0.0 0.0 0.0 0.0 0.0 0.0 0.0 0.0 0.0 0.0 0.0 0.0 0.0 0.0 0.0 0.0 0.0 0.0 0.0 0.0 0.0 0.0 0.0 0.0 0.0 0.0 0.0 0.0 0.0 0.0 0.0
0.0 0.0 0.0 0.0 0.0 0.0 0.0 0.0 0.0 0.0 0.0 0.0 0.0 0.0 0.0 0.0 0.0 0.0 0.0 0.0 0.0 0.0 0.0 0.0 0.0 nan nan nan 0.0 0.0 0.0 0.0 0.0 0.0 0.0 0.0 0.0 0.0 0.0 0.0 0.0 0.0 0.0
0.0 0.0 0.0 0.0 0.0 0.0 0.0 0.0 0.0 0.0 0.0 0.0 0.0 0.0 0.0 0.0 nan nan 0.0 0.0 0.0 0.0 0.0 0.0 0.0 0.0 0.0 nan nan nan nan 0.0 0.0 0.0 0.0 0.0 0.0 0.0 0.0 0.0 0.0 0.0 0.3
0.0 0.0 0.0 0.0 0.0 0.0 0.0 0.0 0.0 0.0 0.0 0.0 0.0 0.0 0.0 0.0 nan nan nan 0.0 0.0 0.0 0.0 0.0 0.0 0.0 nan 0.0 nan nan nan nan 0.0 0.0 0.1 0.0 0.0 0.0 0.0 0.1 0.1 0.2 0.2
0.0 0.0 0.0 0.0 0.0 0.0 0.0 0.0 0.0 0.0 0.0 0.0 0.0 0.0 0.0 0.0 nan nan nan 0.3 0.4 0.3 0.0 0.0 0.0 0.0 0.0 0.0 0.0 0.0 0.0 0.0 0.0 0.0 0.0 0.0 0.0 0.0 0.0 0.0 0.0 0.0 0.5
0.0 0.0 0.0 0.0 0.0 0.0 0.0 0.0 0.1 0.0 0.0 0.0 0.0 0.0 0.0 0.0 nan nan 0.7 1.4 1.3 0.6 0.1 0.0 0.0 0.1 nan nan 0.5 1.4 0.3 0.0 nan nan nan nan nan nan nan 0.7 2.7 2.7 7.4
0.0 0.0 0.0 0.0 0.0 0.0 0.0 0.0 0.0 0.0 0.0 0.0 0.1 0.0 nan 1.3 nan nan nan 3.3 3.5 2.5 0.9 0.4 nan 0.0 nan nan 1.1 1.3 1.4 0.2 0.0 0.0 0.0 0.0 nan nan nan 0.0 0.6 2.7 2.7
0.0 0.0 0.0 0.0 0.0 0.0 0.0 0.0 0.0 0.0 0.3 1.9 3.4 1.6 0.9 1.1 1.1 nan nan 3.5 3.3 2.7 2.1 1.9 1.7 nan nan nan nan 2.1 1.3 0.1 0.4 0.6 0.1 0.1 0.0 0.0 0.0 0.0 0.0 0.6 2.3
0.0 0.0 0.0 0.0 0.0 0.0 0.0 0.0 0.0 0.2 0.8 2.1 9.7 4.5 2.8 3.6 nan nan nan nan nan 5.7 2.6 2.1 1.6 nan nan nan 0.9 nan nan 1.0 5.7 4.8 3.5 2.4 2.0 1.8 0.0 0.0 0.0 0.0 0.0
0.0 0.0 0.0 0.0 0.0 0.0 0.0 0.0 0.0 0.1 1.7 3.3 2.5 5.0 2.7 3.2 2.4 nan nan nan nan 6.1 4.1 3.2 nan nan nan 1.4 nan nan 0.7 5.0 5.4 6.3 3.7 2.0 1.3 0.3 0.1 1.0 1.2 0.2 0.3
0.0 0.0 0.0 0.0 0.0 0.0 0.0 0.0 0.0 1.7 2.8 2.7 3.6 2.9 2.5 2.6 3.7 2.7 3.4 3.5 nan 3.1 1.0 3.3 0.7 2.5 0.9 1.3 2.6 3.5 4.1 4.8 4.5 4.1 2.9 1.6 1.6 2.6 2.7 1.7 3.1 3.7 4.6
0.0 0.0 0.1 0.4 0.1 0.0 0.0 0.0 1.6 1.0 2.7 3.7 3.0 3.7 11.6 10.9 4.5 4.8 5.5 5.3 5.4 3.0 3.7 7.5 4.4 3.3 3.2 2.9 3.8 3.6 3.3 3.4 4.1 5.0 4.5 3.3 2.8 2.6 3.6 3.9 3.3 3.9 6.2
0.2 0.4 1.5 1.9 1.6 0.0 0.0 0.0 nan nan nan nan nan 7.4 11.8 nan nan nan nan nan nan nan 3.8 5.8 11.4 12.5 7.6 3.6 5.3 4.7 4.5 3.4 3.3 4.0 5.9 4.0 3.7 4.2 4.4 5.7 4.8 5.7 6.1
1.0 1.1 2.0 2.0 1.9 2.1 2.4 2.4 4.0 2.8 nan nan nan nan nan nan nan nan nan nan nan nan 6.2 6.4 14.2 16.5 10.1 3.8 4.1 3.9 5.2 4.9 2.7 4.3 5.3 6.3 6.5 5.2 6.6 6.6 7.8 7.1 7.7
1.7 1.2 2.5 2.2 2.1 3.0 4.6 4.9 5.3 6.9 10.3 9.1 nan nan nan nan nan nan nan nan 4.0 nan 3.4 6.2 9.6 10.7 5.5 3.7 3.9 4.9 5.5 7.3 7.6 6.0 7.8 10.7 12.1 8.5 8.8 6.0 5.8 9.4 7.2
1.0 1.9 4.9 6.6 6.2 6.1 6.9 7.0 6.6 7.6 8.1 6.8 5.9 2.6 3.5 nan nan nan nan 6.8 6.1 4.7 3.6 3.3 7.8 5.3 5.7 4.3 13.4 14.4 17.5 16.2 16.4 19.3 11.1 10.8 22.3 6.5 8.2 6.3 7.3 6.3 5.8
0.7 0.3 2.7 4.8 5.8 6.0 5.4 6.4 6.2 7.5 7.3 7.7 7.0 7.1 5.7 4.3 17.3 26.1 17.9 23.5 15.8 6.6 7.3 4.5 4.8 5.1 8.2 7.7 16.1 24.0 22.2 22.0 15.8 11.5 21.0 29.2 26.8 12.8 11.0 9.5 12.3 12.4 5.8
1.2 1.8 1.1 3.6 4.1 4.9 6.4 6.9 7.2 8.8 9.1 8.3 13.5 21.3 2.9 8.1 12.4 13.0 10.6 14.7 11.0 9.7 14.6 5.9 8.7 10.8 8.9 10.9 6.2 13.3 6.4 28.7 11.7 11.7 11.1 11.7 48.2 15.4 9.3 10.0 11.2 8.4 6.1
2.9 3.3 4.7 6.3 5.8 8.9 6.4 6.2 9.1 8.5 8.5 9.6 12.4 12.5 4.3 15.7 10.6 10.8 10.9 17.4 27.8 12.1 9.7 10.5 7.9 6.9 7.2 7.2 8.4 25.3 18.3 24.3 20.4 15.7 13.9 12.4 10.4 12.4 10.1 10.5 11.9 12.2 8.7
5.2 9.3 5.6 3.7 5.6 8.0 13.6 6.7 11.3 14.5 12.4 16.0 10.6 10.8 12.0 16.8 16.3 10.8 15.1 25.5 13.7 15.9 14.1 11.1 19.4 10.6 11.6 14.8 14.1 9.8 13.7 12.4 13.7 15.6 17.0 17.8 10.9 12.6 18.6 13.4 10.8 11.4 11.3
6.8 12.3 6.5 12.1 15.8 8.4 19.5 25.2 18.0 8.6 13.0 17.3 29.0 23.0 18.7 18.9 33.3 26.1 27.7 34.9 22.6 29.3 28.0 25.7 10.8 8.3 8.2 25.7 17.2 13.1 7.6 13.5 9.4 9.9 10.4 15.4 12.2 10.4 14.6 11.4 11.6 11.1 12.6
15.0 19.0 18.8 13.4 13.2 24.9 30.4 23.6 25.0 28.9 26.9 31.0 34.1 27.8 13.0 23.0 17.7 37.7 30.4 22.4 18.3 28.7 16.1 19.3 16.3 12.2 13.0 9.6 8.3 5.4 7.1 4.1 8.8 4.5 10.2 8.1 11.7 11.4 11.7 11.3 14.6 11.4 11.0
10.0 11.3 14.5 14.9 15.3 22.4 23.3 32.3 33.4 30.0 28.5 33.7 34.2 35.3 27.6 20.2 19.8 33.1 23.4 20.7 17.0 16.1 15.6 16.9 15.2 11.3 9.9 10.2 6.3 5.5 5.0 4.6 14.4 4.6 15.6 8.4 12.9 13.5 13.8 11.9 9.9 12.7 8.7
Water_Equivalent
0.00 0.00 0.00 0.00 0.00 0.00 0.00 0.00 0.00 0.00 0.00 0.00 0.00 0.00 0.00 0.00 0.00 0.00 0.00 0.00 0.00 0.00 0.00 0.00 0.00 0.00 0.00 0.00 0.00 0.00 0.00 0.00 0.00 0.00 0.00 0.00 0.00 0.00 0.00 0.00 0.00 0.00 0.00
0.00 0.00 0.00 0.00 0.00 0.00 0.00 0.00 0.00 0.00 0.00 0.00 0.00 0.00 0.00 0.00 0.00 0.00 0.00 0.00 0.00 0.00 0.00 0.00 0.00 0.00 0.00 0.00 0.00 0.00 0.00 0.00 0.00 0.00 0.00 0.00 0.00 0.00 0.00 0.00 0.00 0.00 0.00
0.00 0.00 0.00 0.00 0.00 0.00 0.00 0.00 0.00 0.00 0.00 0.00 0.00 0.00 0.00 0.00 0.00 0.00 0.00 0.00 0.00 0.00 0.00 0.00 0.00 0.00 0.00 0.00 0.00 0.00 0.00 0.00 0.00 0.00 0.00 0.00 0.00 0.00 0.00 0.00 0.00 0.00 0.00
0.00 0.00 0.00 0.00 0.00 0.00 0.00 0.00 0.00 0.00 0.00 0.00 0.00 0.00 0.00 0.00 0.00 0.00 0.00 0.00 0.00 0.00 0.00 0.00 0.00 0.00 0.00 0.00 0.00 0.00 0.00 0.00 0.00 0.00 0.00 0.00 0.00 0.00 0.00 0.00 0.00 0.00 0.00
0.00 0.00 0.00 0.00 0.00 0.00 0.00 0.00 0.00 0.00 0.00 0.00 0.00 0.00 0.00 0.00 0.00 0.00 0.00 0.00 0.00 0.00 0.00 0.00 0.00 nan nan nan 0.00 0.00 0.00 0.00 0.00 0.00 0.00 0.00 0.00 0.00 0.00 0.00 0.00 0.00 0.00
0.00 0.00 0.00 0.00 0.00 0.00 0.00 0.00 0.00 0.00 0.00 0.00 0.00 0.00 0.00 0.00 nan nan 0.00 0.00 0.00 0.00 0.00 0.00 0.00 0.00 0.00 nan nan nan nan 0.00 0.00 0.00 0.00 0.00 0.00 0.00 0.00 0.01 0.00 0.01 0.05
0.00 0.00 0.00 0.00 0.00 0.00 0.00 0.00 0.00 0.00 0.00 0.00 0.00 0.00 0.00 0.00 nan nan nan 0.00 0.00 0.00 0.00 0.00 0.00 0.00 nan 0.00 nan nan nan nan 0.00 0.01 0.02 0.01 0.00 0.00 0.00 0.01 0.02 0.03 0.02
0.00 0.00 0.00 0.00 0.00 0.00 0.00 0.00 0.00 0.00 0.00 0.00 0.00 0.00 0.00 0.00 nan nan nan 0.04 0.05 0.04 0.00 0.00 0.00 0.00 0.00 0.00 0.00 0.00 0.00 0.00 0.00 0.00 0.00 0.00 0.00 0.00 0.00 0.00 0.00 0.00 0.08
0.00 0.00 0.00 0.00 0.00 0.00 0.00 0.00 0.01 0.00 0.00 0.00 0.00 0.00 0.00 0.00 nan nan 0.10 0.20 0.18 0.08 0.02 0.00 0.00 0.01 nan nan 0.08 0.20 0.04 0.00 nan nan nan nan nan nan nan 0.10 0.39 0.38 0.95
0.00 0.00 0.00 0.00 0.00 0.00 0.00 0.00 0.00 0.00 0.00 0.00 0.02 0.00 nan 0.18 nan nan nan 0.47 0.48 0.34 0.13 0.06 nan 0.00 nan nan 0.16 0.17 0.18 0.03 0.00 0.00 0.01 0.00 nan nan nan 0.01 0.09 0.36 0.37
0.00 0.00 0.00 0.00 0.00 0.00 0.00 0.00 0.00 0.00 0.05 0.25 0.44 0.22 0.12 0.15 0.15 nan nan 0.50 0.46 0.38 0.28 0.26 0.24 nan nan nan nan 0.29 0.18 0.01 0.06 0.09 0.02 0.02 0.00 0.00 0.00 0.00 0.01 0.10 0.33
0.00 0.00 0.00 0.00 0.00 0.00 0.00 0.00 0.00 0.03 0.11 0.27 1.23 0.60 0.38 0.48 nan nan nan nan nan 0.76 0.35 0.29 0.22 nan nan nan 0.20 nan nan 0.17 0.81 0.67 0.48 0.32 0.28 0.27 0.00 0.00 0.00 0.00 0.00
0.00 0.00 0.00 0.00 0.00 0.00 0.00 0.00 0.00 0.01 0.23 0.40 0.34 0.64 0.36 0.44 0.33 nan nan nan nan 0.83 0.56 0.43 nan nan nan 0.45 nan nan 0.24 0.69 0.74 0.83 0.50 0.27 0.19 0.05 0.01 0.14 0.18 0.05 0.08
0.00 0.00 0.00 0.00 0.00 0.00 0.00 0.00 0.00 0.23 0.35 0.36 0.47 0.37 0.33 0.34 0.49 0.36 0.46 0.47 nan 0.42 0.25 0.46 0.22 0.42 0.29 0.29 0.45 0.51 0.59 0.66 0.62 0.55 0.39 0.22 0.22 0.37 0.38 0.25 0.40 0.44 0.54
0.00 0.00 0.02 0.06 0.01 0.00 0.00 0.00 0.22 0.14 0.35 0.47 0.40 0.47 1.34 1.26 0.57 0.64 0.73 0.70 0.73 0.43 0.61 1.04 0.60 0.44 0.43 0.40 0.53 0.50 0.46 0.47 0.55 0.69 0.62 0.46 0.39 0.35 0.48 0.55 0.43 0.45 0.69
0.02 0.06 0.21 0.27 0.22 0.00 0.00 0.00 nan nan nan nan nan 0.90 1.49 nan nan nan nan nan nan nan 0.52 0.73 1.37 1.52 0.88 0.46 0.68 0.63 0.62 0.52 0.45 0.55 0.81 0.55 0.52 0.62 0.57 0.71 0.62 0.66 0.65
0.14 0.15 0.28 0.30 0.27 0.29 0.33 0.32 0.44 0.38 nan nan nan nan nan nan nan nan nan nan nan nan 0.78 0.75 1.47 1.74 1.10 0.45 0.49 0.49 0.65 0.66 0.36 0.57 0.72 0.86 0.88 0.69 0.87 0.84 0.96 0.83 0.84
0.23 0.39 0.34 0.30 0.29 0.40 0.58 0.58 0.57 0.71 1.05 0.94 nan nan nan nan nan nan nan nan 0.50 nan 0.42 0.71 1.03 1.12 0.60 0.43 0.45 0.51 0.61 0.89 0.91 0.74 1.04 1.39 1.55 1.07 1.11 0.74 0.72 1.01 0.77
0.14 0.27 0.65 0.86 0.82 0.81 0.87 0.83 0.73 0.80 0.82 0.70 0.66 0.42 0.74 nan nan nan nan 0.81 0.69 0.55 0.43 0.39 0.89 0.59 0.61 0.48 1.39 1.51 1.84 1.70 1.75 2.20 1.34 1.30 2.90 0.84 1.00 0.78 0.85 0.92 0.88
0.10 0.09 0.45 0.64 0.78 0.81 0.70 0.76 0.65 0.77 0.74 0.79 0.72 0.71 0.58 0.58 1.85 2.75 1.89 2.62 1.69 0.75 0.83 0.51 0.57 0.60 0.89 0.78 1.68 2.57 2.36 2.35 1.69 1.26 2.27 3.35 3.12 1.42 1.16 1.00 1.28 1.28 0.61
0.17 0.26 0.37 0.50 0.55 0.65 0.82 0.81 0.74 0.89 0.93 0.84 1.38 2.22 0.97 0.82 1.26 1.31 1.06 1.49 1.09 0.96 1.48 0.66 1.00 1.25 1.08 1.29 0.72 1.42 0.67 3.09 1.24 1.24 1.19 1.26 5.42 1.60 0.96 1.03 1.15 0.85 0.62
0.41 0.46 0.65 0.83 0.76 1.11 0.80 0.75 0.97 0.87 0.87 0.98 1.27 1.28 1.42 1.61 1.06 1.08 1.09 1.79 2.93 1.22 0.97 1.14 0.83 0.74 0.80 0.83 0.96 2.81 1.91 2.58 2.16 1.64 1.43 1.28 1.09 1.28 1.04 1.08 1.21 1.25 0.88
0.73 1.22 0.73 0.49 0.71 2.26 1.52 0.80 1.16 1.49 1.26 1.65 1.08 1.10 1.21 1.71 1.66 1.08 1.52 2.66 1.39 1.63 1.45 1.13 2.02 1.08 1.26 1.57 1.59 1.12 1.41 1.28 1.41 1.65 1.77 1.85 1.12 1.29 1.93 1.37 1.10 1.16 1.15
0.94 1.60 0.85 1.53 1.88 1.00 2.04 2.67 1.87 2.49 1.33 1.79 3.07 2.39 1.92 1.94 3.54 2.72 2.89 3.74 2.35 3.11 2.97 2.71 1.10 0.84 0.83 2.73 1.79 1.42 0.87 1.47 1.14 1.11 1.28 1.60 1.26 1.33 1.51 1.16 1.18 1.13 1.28
1.94 2.39 2.35 1.63 1.59 2.76 3.36 2.48 2.62 3.06 2.83 3.29 3.64 2.92 1.31 2.39 1.80 4.05 3.21 2.32 1.88 3.03 1.65 1.99 1.67 1.24 1.33 0.97 0.84 0.54 0.93 1.34 1.36 1.48 1.16 0.94 1.27 1.20 1.20 1.15 1.50 1.15 1.11
1.31 1.46 1.83 1.80 1.84 2.62 2.65 3.52 3.56 3.18 3.01 3.60 3.65 3.77 2.90 2.07 2.02 3.53 2.43 2.15 1.75 1.65 1.60 1.74 1.56 1.15 1.01 1.04 0.64 1.61 1.66 1.51 1.64 1.52 1.77 1.02 1.40 1.44 1.42 1.23 1.04 1.30 0.91
SL_Ratio
nan nan nan nan nan nan nan nan nan nan nan nan nan nan nan nan nan nan nan nan nan nan nan nan nan nan nan nan nan nan nan nan nan nan nan nan nan nan nan nan nan nan nan
nan nan nan nan nan nan nan nan nan nan nan nan nan nan nan nan nan nan nan nan nan nan nan nan nan nan nan nan nan nan nan nan nan nan nan nan nan nan nan nan nan nan nan
nan nan nan nan nan nan nan nan nan nan nan nan nan nan nan nan nan nan nan nan nan nan nan nan nan nan nan nan nan nan nan nan nan nan nan nan nan nan nan nan nan nan nan
nan nan nan nan nan nan nan nan nan nan nan nan nan nan nan nan nan nan nan nan nan nan nan nan nan nan nan nan nan nan nan nan nan nan nan nan nan nan nan nan 0.0 nan nan
nan nan nan nan nan nan nan nan nan nan nan nan nan nan nan nan nan nan nan nan nan nan nan nan nan nan nan nan nan nan nan 6.7 8.0 6.0 5.0 nan nan nan 6.7 nan 6.3 nan nan
nan nan nan nan nan nan nan nan nan nan nan nan nan nan nan nan nan nan nan nan nan nan nan nan nan nan nan nan nan nan nan 6.7 6.7 10.0 6.0 6.7 nan nan 10.0 5.8 6.0 5.7 5.1
nan nan nan nan nan nan nan nan nan nan nan nan nan nan nan nan nan nan nan nan 6.7 nan nan nan nan nan nan nan nan nan nan nan 2.5 6.5 7.8 7.5 7.5 6.7 6.7 6.9 6.1 6.4 6.6
nan nan nan nan nan nan nan nan nan nan nan nan nan nan nan nan nan nan nan 7.0 7.0 7.1 nan nan nan nan 10.0 7.1 7.1 6.7 7.0 6.7 0.0 nan 5.0 6.7 10.0 nan 6.7 nan 5.0 5.0 5.9
nan nan nan nan nan nan nan nan 7.0 nan nan nan nan nan nan nan nan nan 7.1 7.2 7.2 7.2 7.0 nan 8.3 7.2 nan nan 6.5 7.2 7.2 7.1 nan nan nan nan nan nan nan 6.6 7.0 7.0 7.8
nan nan nan nan nan nan nan nan nan nan nan 7.3 7.1 nan nan 7.5 nan nan nan 7.0 7.3 7.2 6.9 7.0 nan 10.0 nan nan 6.9 7.3 7.8 7.5 7.5 7.8 5.0 nan nan nan nan 6.3 6.9 7.4 7.2
nan nan nan nan nan nan nan nan nan 7.0 7.2 7.6 7.6 7.5 7.3 7.4 7.4 nan nan 7.0 7.2 7.3 7.3 7.3 7.2 nan nan nan nan 7.1 7.4 7.4 6.6 7.1 7.1 6.7 6.4 0.0 5.0 5.0 6.7 6.3 7.0
nan nan nan nan nan nan nan nan nan 7.2 7.6 7.7 7.8 7.6 7.2 7.5 nan nan nan nan nan 7.5 7.5 7.3 7.2 nan nan nan 4.5 nan nan 5.7 7.1 7.1 7.2 7.3 7.0 6.8 5.0 10.0 nan 6.0 5.5
nan nan nan nan nan nan nan nan nan 7.3 7.6 8.3 7.5 7.8 7.5 7.3 7.3 nan nan nan nan 7.3 7.3 7.3 nan nan nan 3.0 nan nan 3.0 7.3 7.3 7.6 7.3 7.2 7.0 6.1 6.8 6.8 6.9 3.9 4.0
nan nan nan nan nan nan nan nan nan 7.4 7.9 7.7 7.7 7.7 7.7 7.6 7.5 7.4 7.5 7.3 nan 7.4 4.2 7.3 3.0 5.9 3.0 4.6 5.9 7.0 7.0 7.3 7.4 7.3 7.5 7.3 7.2 7.1 7.1 6.8 7.8 8.4 8.6
nan nan 7.0 7.0 7.0 nan nan nan 7.2 7.3 7.7 7.8 7.5 7.9 8.6 8.6 7.8 7.6 7.5 7.5 7.5 6.9 6.0 7.3 7.3 7.5 7.5 7.3 7.2 7.1 7.2 7.3 7.3 7.2 7.2 7.3 7.1 7.5 7.4 7.0 7.7 8.7 8.9
7.0 7.0 7.1 7.2 7.1 nan nan nan nan nan nan nan nan 8.2 7.9 nan nan nan nan nan nan nan 7.5 7.9 8.3 8.2 8.6 7.9 7.8 7.4 7.3 6.6 7.3 7.3 7.2 7.3 7.1 6.9 7.8 8.0 7.8 8.6 9.4
7.5 7.5 7.2 6.5 7.2 7.3 7.3 7.5 8.9 7.3 nan nan nan nan nan nan nan nan nan nan nan nan 7.9 8.5 9.6 9.5 9.2 8.4 8.4 8.1 8.0 7.4 7.6 7.5 7.3 7.3 7.4 7.6 7.6 7.9 8.1 8.5 9.2
7.5 3.0 7.2 7.3 7.4 7.4 7.9 8.5 9.4 9.7 9.8 9.7 nan nan nan nan nan nan nan nan 8.0 nan 8.0 8.7 9.3 9.6 9.2 8.7 8.8 9.6 9.1 8.2 8.3 8.1 7.5 7.7 7.8 8.0 7.9 8.2 8.1 9.4 9.3
7.1 7.1 7.5 7.7 7.5 7.6 7.8 8.4 9.0 9.5 9.8 9.7 8.9 6.0 4.7 nan nan nan nan 8.4 8.8 8.5 8.4 8.4 8.7 8.9 9.3 9.1 9.7 9.6 9.5 9.5 9.4 8.8 8.2 8.3 7.7 7.7 8.2 8.1 8.5 6.8 6.6
7.0 3.6 6.1 7.4 7.5 7.4 7.6 8.4 9.5 9.8 9.8 9.8 9.8 9.9 9.8 7.4 9.4 9.5 9.5 9.0 9.4 8.9 8.8 8.8 8.5 8.4 9.2 9.8 9.6 9.4 9.4 9.3 9.4 9.1 9.3 8.7 8.6 9.0 9.5 9.5 9.6 9.7 9.5
7.0 7.1 3.0 7.3 7.5 7.7 7.8 8.5 9.8 9.8 9.8 9.8 9.8 9.6 3.0 9.9 9.9 9.9 10.0 9.9 10.0 10.1 9.8 8.9 8.8 8.7 8.2 8.5 8.7 9.4 9.4 9.3 9.4 9.4 9.4 9.3 8.9 9.6 9.7 9.7 9.7 9.8 9.9
7.2 7.3 7.3 7.5 7.7 8.1 8.0 8.3 9.4 9.8 9.8 9.8 9.8 9.8 3.0 9.7 9.9 10.0 10.0 9.7 9.5 9.9 9.9 9.2 9.5 9.4 9.0 8.7 8.8 9.0 9.6 9.4 9.5 9.6 9.7 9.7 9.5 9.7 9.8 9.8 9.8 9.8 9.9
7.1 7.6 7.7 7.6 7.9 3.5 9.0 8.4 9.8 9.7 9.8 9.7 9.8 9.9 9.9 9.8 9.8 10.0 9.9 9.6 9.8 9.7 9.7 9.8 9.6 9.8 9.2 9.4 8.8 8.7 9.7 9.7 9.7 9.5 9.6 9.6 9.8 9.7 9.6 9.8 9.8 9.8 9.8
7.2 7.7 7.7 7.9 8.4 8.4 9.6 9.4 9.6 3.4 9.8 9.7 9.4 9.6 9.8 9.8 9.4 9.6 9.6 9.3 9.6 9.4 9.4 9.5 9.8 9.9 9.9 9.4 9.6 9.2 8.8 9.1 8.3 8.9 8.1 9.6 9.7 7.9 9.7 9.8 9.8 9.8 9.8
7.7 7.9 8.0 8.2 8.3 9.0 9.0 9.5 9.5 9.4 9.5 9.4 9.3 9.5 9.9 9.6 9.8 9.3 9.5 9.6 9.7 9.5 9.7 9.7 9.7 9.8 9.8 9.9 9.9 9.9 7.7 3.0 6.5 3.0 8.8 8.6 9.2 9.5 9.8 9.8 9.8 9.9 9.9
7.6 7.7 8.0 8.3 8.3 8.5 8.8 9.2 9.4 9.4 9.5 9.4 9.4 9.4 9.5 9.8 9.8 9.4 9.6 9.6 9.7 9.8 9.7 9.7 9.7 9.8 9.8 9.8 9.9 3.4 3.0 3.0 8.8 3.0 8.8 8.3 9.2 9.4 9.8 9.6 9.6 9.8 9.6